OpenBCM V1.13 (Linux)

Packet Radio Mailbox

DB0FHN

[JN59NK Nuernberg]

 Login: GUEST





  
UA9FBV > KEPS     24.10.04 07:36l 151 Lines 3944 Bytes #999 (0) @ AMSAT
BID : ORB04297.O
Read: GUEST
Subj: Orbital Elements  04297.OSCAR
Path: DB0FHN<DB0FOR<DB0MRW<DB0HOT<OK0PBX<OK0PHK<OK0NAG<OK0PPL<RZ6HXA<ER3KAZ<
      UA9FBV
Sent: 041024/0531Z @:UA9FBV.PRM.RUS.AS #:6658 [Perm] GATEWAY $:ORB04297.O
From: UA9FBV@UA9FBV.PRM.RUS.AS
To  : KEPS@AMSAT


HR AMSAT ORBITAL ELEMENTS FOR OSCAR SATELLITES
FROM WA5QGD FORT WORTH,TX October 23, 2004
SEND SUBSCRIBE/UNSUBSCRIBE TO majordomo@amsat.org ONLY
BID: ORB04297.O
TO ALL RADIO AMATEURS BT

Satellite: AO-07
Catalog number: 07530
Epoch time:      04297.52590438
Element set:     337
Inclination:      101.6672 deg
RA of node:       342.1837 deg
Eccentricity:    0.0012093
Arg of perigee:   334.2439 deg
Mean anomaly:      25.8031 deg
Mean motion:   12.53569103 rev/day
Decay rate:       -2.9e-07 rev/day^2
Epoch rev:           36999
Checksum:              300

Satellite: AO-10
Catalog number: 14129
Epoch time:      04296.35809202
Element set:     114
Inclination:       26.7232 deg
RA of node:        65.4250 deg
Eccentricity:    0.6033084
Arg of perigee:   134.3621 deg
Mean anomaly:     294.7073 deg
Mean motion:    2.05870906 rev/day
Decay rate:      -3.44e-06 rev/day^2
Epoch rev:           16063
Checksum:              269

Satellite: UO-11
Catalog number: 14781
Epoch time:      04297.17451639
Element set:     615
Inclination:       98.1883 deg
RA of node:       284.2088 deg
Eccentricity:    0.0009995
Arg of perigee:    46.9395 deg
Mean anomaly:     313.2643 deg
Mean motion:   14.79026532 rev/day
Decay rate:       3.80e-06 rev/day^2
Epoch rev:           10676
Checksum:              332

Satellite: RS-10/11
Catalog number: 18129
Epoch time:      04297.43169642
Element set:     526
Inclination:       82.9262 deg
RA of node:        53.2560 deg
Eccentricity:    0.0011456
Arg of perigee:   332.4275 deg
Mean anomaly:      27.6269 deg
Mean motion:   13.72746594 rev/day
Decay rate:        6.2e-07 rev/day^2
Epoch rev:           86859
Checksum:              322

Satellite: FO-20
Catalog number: 20480
Epoch time:      04295.67563378
Element set:     726
Inclination:       99.0293 deg
RA of node:       149.2280 deg
Eccentricity:    0.0540821
Arg of perigee:    60.2985 deg
Mean anomaly:     305.0824 deg
Mean motion:   12.83342209 rev/day
Decay rate:       -4.6e-07 rev/day^2
Epoch rev:           68890
Checksum:              313

Satellite: RS-12/13
Catalog number: 21089
Epoch time:      04296.84949295
Element set:     748
Inclination:       82.9173 deg
RA of node:        87.0250 deg
Eccentricity:    0.0030152
Arg of perigee:    23.4254 deg
Mean anomaly:     336.8275 deg
Mean motion:   13.74441654 rev/day
Decay rate:        1.2e-07 rev/day^2
Epoch rev:           68789
Checksum:              325

Satellite: RS-15
Catalog number: 23439
Epoch time:      04295.91257964
Element set:    0818
Inclination:      064.8140 deg
RA of node:       132.8956 deg
Eccentricity:    0.0156524
Arg of perigee:   358.5552 deg
Mean anomaly:     001.4903 deg
Mean motion:   11.27550123 rev/day
Decay rate:       -3.9e-07 rev/day^2
Epoch rev:           40452
Checksum:              303

Satellite: FO-29
Catalog number: 24278
Epoch time:      04297.26067062
Element set:     814
Inclination:       98.5811 deg
RA of node:        12.4251 deg
Eccentricity:    0.0351422
Arg of perigee:    70.0396 deg
Mean anomaly:     293.8226 deg
Mean motion:   13.52904444 rev/day
Decay rate:       -7.0e-08 rev/day^2
Epoch rev:           40415
Checksum:              289

Satellite: SO-33
Catalog number: 25509
Epoch time:      04297.32559197
Element set:     220
Inclination:       31.4333 deg
RA of node:       291.3307 deg
Eccentricity:    0.0356323
Arg of perigee:   255.7569 deg
Mean anomaly:     100.3423 deg
Mean motion:   14.27882047 rev/day
Decay rate:       5.98e-06 rev/day^2
Epoch rev:           31294
Checksum:              304

Satellite: AO-40
Catalog number: 26609
Epoch time:      04296.05263570
Element set:     450
Inclination:        9.5437 deg
RA of node:       337.9115 deg
Eccentricity:    0.7962054
Arg of perigee:   331.4564 deg
Mean anomaly:       2.2152 deg
Mean motion:    1.25585432 rev/day
Decay rate:       -7.0e-07 rev/day^2
Epoch rev:            1826
Checksum:              284



Read previous mail | Read next mail


 21.06.2026 06:36:11lGo back Go up